Time,TemperatureF,DewpointF,PressureIn,WindDirection,WindDirectionDegrees,WindSpeedMPH,WindSpeedGustMPH,Humidity,HourlyPrecipIn,Conditions,Clouds,dailyrainin,SoftwareType,DateUTC
2013-06-13 00:07:00,61.3,50.7,30.07,East,89,0.0,1.0,68,0.00,,,0.00,meteohub,2013-06-12 22:07:00,
2013-06-13 00:12:00,61.2,50.5,30.07,ESE,117,0.0,1.0,68,0.00,,,0.00,meteohub,2013-06-12 22:12:00,
2013-06-13 00:17:00,61.2,50.2,30.07,ENE,59,0.0,1.0,67,0.00,,,0.00,meteohub,2013-06-12 22:17:00,
2013-06-13 00:22:00,61.3,50.4,30.07,NNE,20,0.0,1.0,67,0.00,,,0.00,meteohub,2013-06-12 22:22:00,
2013-06-13 00:32:00,61.5,50.5,30.07,NNE,22,0.0,1.0,67,0.00,,,0.00,meteohub,2013-06-12 22:32:00,
2013-06-13 00:37:00,61.3,50.4,30.07,NNE,19,0.0,1.0,67,0.00,,,0.00,meteohub,2013-06-12 22:37:00,
2013-06-13 00:42:00,61.3,51.1,30.07,NNE,15,0.0,1.0,69,0.00,,,0.00,meteohub,2013-06-12 22:42:00,
2013-06-13 00:47:00,61.2,50.5,30.07,North,11,0.0,1.0,68,0.00,,,0.00,meteohub,2013-06-12 22:47:00,
2013-06-13 00:52:00,61.2,50.9,30.07,North,11,0.0,1.0,69,0.00,,,0.00,meteohub,2013-06-12 22:52:00,
2013-06-13 00:57:00,61.0,51.1,30.07,North,11,0.0,1.0,70,0.00,,,0.00,meteohub,2013-06-12 22:57:00,
2013-06-13 01:02:00,60.6,50.7,30.07,North,11,0.0,1.0,70,0.00,,,0.00,meteohub,2013-06-12 23:02:00,
2013-06-13 01:07:00,60.4,51.1,30.07,North,11,0.0,1.0,71,0.00,,,0.00,meteohub,2013-06-12 23:07:00,
2013-06-13 01:12:00,60.3,50.9,30.07,North,0,0.0,1.0,71,0.00,,,0.00,meteohub,2013-06-12 23:12:00,
2013-06-13 01:17:00,60.1,51.1,30.07,North,0,0.0,1.0,72,0.00,,,0.00,meteohub,2013-06-12 23:17:00,
2013-06-13 01:22:00,59.5,50.9,30.07,North,355,0.0,1.0,73,0.00,,,0.00,meteohub,2013-06-12 23:22:00,
2013-06-13 01:27:00,59.4,50.7,30.07,North,11,0.0,2.0,73,0.00,,,0.00,meteohub,2013-06-12 23:27:00,
2013-06-13 01:32:00,59.4,50.7,30.07,North,355,1.0,2.0,73,0.00,,,0.00,meteohub,2013-06-12 23:32:00,
2013-06-13 01:37:00,59.4,50.4,30.06,North,355,0.0,2.0,72,0.00,,,0.00,meteohub,2013-06-12 23:37:00,
2013-06-13 01:42:00,59.5,50.5,30.06,North,350,0.0,2.0,72,0.00,,,0.00,meteohub,2013-06-12 23:42:00,
2013-06-13 01:47:00,59.7,50.4,30.07,NW,326,0.0,2.0,71,0.00,,,0.00,meteohub,2013-06-12 23:47:00,
2013-06-13 01:52:00,59.9,50.5,30.06,North,351,0.0,2.0,71,0.00,,,0.00,meteohub,2013-06-12 23:52:00,
2013-06-13 01:57:00,60.1,50.2,30.06,NNW,340,0.0,2.0,70,0.00,,,0.00,meteohub,2013-06-12 23:57:00,
2013-06-13 02:02:00,60.1,50.2,30.06,NNW,340,0.0,2.0,70,0.00,,,0.00,meteohub,2013-06-13 00:02:00,
2013-06-13 02:12:00,60.1,50.7,30.06,NNW,340,0.0,1.0,71,0.00,,,0.00,meteohub,2013-06-13 00:12:00,
2013-06-13 02:22:00,59.7,50.4,30.06,NNW,340,0.0,1.0,71,0.00,,,0.00,meteohub,2013-06-13 00:22:00,
2013-06-13 02:27:00,59.7,50.7,30.06,NNW,340,0.0,1.0,72,0.00,,,0.00,meteohub,2013-06-13 00:27:00,
2013-06-13 02:37:00,59.4,50.7,30.06,NNW,340,0.0,1.0,73,0.00,,,0.00,meteohub,2013-06-13 00:37:00,
2013-06-13 02:42:00,59.2,50.5,30.06,NNW,329,0.0,1.0,73,0.00,,,0.00,meteohub,2013-06-13 00:42:00,
2013-06-13 02:47:00,58.8,50.5,30.06,North,350,0.0,1.0,74,0.00,,,0.00,meteohub,2013-06-13 00:47:00,
2013-06-13 02:52:00,58.8,50.5,30.07,NW,319,0.0,1.0,74,0.00,,,0.00,meteohub,2013-06-13 00:52:00,
2013-06-13 02:57:00,58.6,50.4,30.06,NW,308,0.0,1.0,74,0.00,,,0.00,meteohub,2013-06-13 00:57:00,
2013-06-13 03:02:00,58.5,50.5,30.06,NW,308,0.0,1.0,75,0.00,,,0.00,meteohub,2013-06-13 01:02:00,
2013-06-13 03:07:00,58.3,50.4,30.06,West,264,0.0,1.0,75,0.00,,,0.00,meteohub,2013-06-13 01:07:00,
2013-06-13 03:12:00,58.1,50.2,30.06,WSW,246,0.0,1.0,75,0.00,,,0.00,meteohub,2013-06-13 01:12:00,
2013-06-13 03:17:00,57.9,50.4,30.06,West,279,0.0,1.0,76,0.00,,,0.00,meteohub,2013-06-13 01:17:00,
2013-06-13 03:22:00,57.9,50.4,30.06,NW,319,1.0,1.0,76,0.00,,,0.00,meteohub,2013-06-13 01:22:00,
2013-06-13 03:27:00,57.9,50.4,30.06,NW,326,1.0,1.0,76,0.00,,,0.00,meteohub,2013-06-13 01:27:00,
2013-06-13 03:32:00,57.7,50.5,30.06,North,355,1.0,1.0,77,0.00,,,0.00,meteohub,2013-06-13 01:32:00,
2013-06-13 03:37:00,57.7,50.5,30.06,NNW,340,0.0,2.0,77,0.00,,,0.00,meteohub,2013-06-13 01:37:00,
2013-06-13 03:42:00,57.6,50.4,30.06,NNW,342,0.0,2.0,77,0.00,,,0.00,meteohub,2013-06-13 01:42:00,
2013-06-13 03:47:00,57.4,50.5,30.05,WNW,297,0.0,1.0,78,0.00,,,0.00,meteohub,2013-06-13 01:47:00,
2013-06-13 03:52:00,57.4,50.5,30.06,WNW,292,0.0,1.0,78,0.00,,,0.00,meteohub,2013-06-13 01:52:00,
2013-06-13 03:57:00,57.2,50.4,30.06,WNW,290,0.0,1.0,78,0.00,,,0.00,meteohub,2013-06-13 01:57:00,
2013-06-13 04:02:00,57.0,50.5,30.06,West,266,0.0,2.0,79,0.00,,,0.00,meteohub,2013-06-13 02:02:00,
2013-06-13 04:07:00,56.8,50.4,30.06,SSW,195,0.0,2.0,79,0.00,,,0.00,meteohub,2013-06-13 02:07:00,
2013-06-13 04:12:00,56.8,50.4,30.06,West,267,0.0,2.0,79,0.00,,,0.00,meteohub,2013-06-13 02:12:00,
2013-06-13 04:17:00,56.8,50.4,30.05,WSW,243,0.0,2.0,79,0.00,,,0.00,meteohub,2013-06-13 02:17:00,
2013-06-13 04:22:00,56.8,50.7,30.05,SSW,212,1.0,4.0,80,0.00,,,0.00,meteohub,2013-06-13 02:22:00,
2013-06-13 04:27:00,56.8,50.7,30.05,SW,228,0.0,4.0,80,0.00,,,0.00,meteohub,2013-06-13 02:27:00,
2013-06-13 04:37:00,56.7,50.5,30.05,WNW,294,1.0,2.0,80,0.00,,,0.00,meteohub,2013-06-13 02:37:00,
2013-06-13 04:42:00,56.5,50.4,30.05,SW,218,0.0,2.0,80,0.00,,,0.00,meteohub,2013-06-13 02:42:00,
2013-06-13 04:47:00,56.5,50.7,30.05,WSW,250,0.0,2.0,81,0.00,,,0.00,meteohub,2013-06-13 02:47:00,
2013-06-13 04:52:00,56.3,50.5,30.05,West,270,1.0,1.0,81,0.00,,,0.00,meteohub,2013-06-13 02:52:00,
2013-06-13 04:57:00,56.1,50.7,30.05,SSW,206,0.0,2.0,82,0.00,,,0.00,meteohub,2013-06-13 02:57:00,
2013-06-13 05:02:00,56.3,50.9,30.05,WSW,248,0.0,2.0,82,0.00,,,0.00,meteohub,2013-06-13 03:02:00,
2013-06-13 05:07:00,56.1,50.7,30.06,NNE,14,0.0,2.0,82,0.00,,,0.00,meteohub,2013-06-13 03:07:00,
2013-06-13 05:12:00,56.1,50.7,30.06,North,355,0.0,1.0,82,0.00,,,0.00,meteohub,2013-06-13 03:12:00,
2013-06-13 05:17:00,56.1,50.7,30.06,North,0,0.0,1.0,82,0.00,,,0.00,meteohub,2013-06-13 03:17:00,
2013-06-13 05:22:00,56.1,50.7,30.05,NNW,336,0.0,1.0,82,0.00,,,0.00,meteohub,2013-06-13 03:22:00,
2013-06-13 05:27:00,56.1,50.7,30.05,NNW,340,1.0,1.0,82,0.00,,,0.00,meteohub,2013-06-13 03:27:00,
2013-06-13 05:32:00,56.1,50.7,30.06,WSW,257,0.0,1.0,82,0.00,,,0.00,meteohub,2013-06-13 03:32:00,
2013-06-13 05:37:00,56.1,51.1,30.06,South,190,0.0,1.0,83,0.00,,,0.00,meteohub,2013-06-13 03:37:00,
2013-06-13 05:47:00,56.1,51.1,30.06,West,279,1.0,1.0,83,0.00,,,0.00,meteohub,2013-06-13 03:47:00,
2013-06-13 05:52:00,56.1,51.1,30.06,SSW,211,0.0,1.0,83,0.00,,,0.00,meteohub,2013-06-13 03:52:00,
2013-06-13 05:57:00,56.1,51.1,30.06,WSW,243,0.0,1.0,83,0.00,,,0.00,meteohub,2013-06-13 03:57:00,
2013-06-13 06:02:00,56.3,51.3,30.06,WSW,248,1.0,1.0,83,0.00,,,0.00,meteohub,2013-06-13 04:02:00,
2013-06-13 06:12:00,56.5,51.4,30.06,SSW,200,0.0,2.0,83,0.00,,,0.00,meteohub,2013-06-13 04:12:00,
2013-06-13 06:17:00,56.5,51.4,30.06,West,280,1.0,2.0,83,0.00,,,0.00,meteohub,2013-06-13 04:17:00,
2013-06-13 06:22:00,56.7,51.6,30.06,SW,220,0.0,2.0,83,0.00,,,0.00,meteohub,2013-06-13 04:22:00,
2013-06-13 06:27:00,56.8,51.8,30.06,SW,227,0.0,1.0,83,0.00,,,0.00,meteohub,2013-06-13 04:27:00,
2013-06-13 06:32:00,57.0,51.6,30.06,SSW,211,0.0,1.0,82,0.00,,,0.00,meteohub,2013-06-13 04:32:00,
2013-06-13 06:37:00,57.4,52.0,30.06,West,265,0.0,1.0,82,0.00,,,0.00,meteohub,2013-06-13 04:37:00,
2013-06-13 06:42:00,57.6,52.2,30.06,SW,236,0.0,1.0,82,0.00,,,0.00,meteohub,2013-06-13 04:42:00,
2013-06-13 06:47:00,57.7,52.3,30.06,NNW,336,1.0,2.0,82,0.00,,,0.00,meteohub,2013-06-13 04:47:00,
2013-06-13 06:52:00,57.9,52.5,30.06,WNW,302,0.0,2.0,82,0.00,,,0.00,meteohub,2013-06-13 04:52:00,
2013-06-13 06:57:00,58.3,52.5,30.06,SW,227,0.0,2.0,81,0.00,,,0.00,meteohub,2013-06-13 04:57:00,
2013-06-13 07:02:00,58.5,52.7,30.06,SW,227,0.0,3.0,81,0.00,,,0.00,meteohub,2013-06-13 05:02:00,
2013-06-13 07:07:00,58.8,52.7,30.06,SW,227,0.0,3.0,80,0.00,,,0.00,meteohub,2013-06-13 05:07:00,
2013-06-13 07:12:00,59.5,53.4,30.06,SW,227,0.0,2.0,80,0.00,,,0.00,meteohub,2013-06-13 05:12:00,
2013-06-13 07:17:00,60.3,53.4,30.06,SW,226,1.0,4.0,78,0.00,,,0.00,meteohub,2013-06-13 05:17:00,
2013-06-13 07:22:00,60.8,53.6,30.06,SW,226,1.0,4.0,77,0.00,,,0.00,meteohub,2013-06-13 05:22:00,
2013-06-13 07:27:00,61.3,53.8,30.06,SW,226,0.0,2.0,76,0.00,,,0.00,meteohub,2013-06-13 05:27:00,
2013-06-13 07:32:00,61.9,54.3,30.06,SW,226,0.0,2.0,76,0.00,,,0.00,meteohub,2013-06-13 05:32:00,
2013-06-13 07:37:00,62.2,54.1,30.06,SW,226,1.0,2.0,75,0.00,,,0.00,meteohub,2013-06-13 05:37:00,
2013-06-13 07:42:00,62.6,54.1,30.06,SW,226,1.0,2.0,74,0.00,,,0.00,meteohub,2013-06-13 05:42:00,
2013-06-13 07:47:00,63.1,54.7,30.06,SW,226,2.0,2.0,74,0.00,,,0.00,meteohub,2013-06-13 05:47:00,
2013-06-13 07:52:00,63.7,54.5,30.06,SW,226,0.0,2.0,72,0.00,,,0.00,meteohub,2013-06-13 05:52:00,
2013-06-13 07:57:00,64.2,55.0,30.06,SW,226,1.0,4.0,72,0.00,,,0.00,meteohub,2013-06-13 05:57:00,
2013-06-13 08:02:00,64.8,55.2,30.06,SW,226,0.0,4.0,71,0.00,,,0.00,meteohub,2013-06-13 06:02:00,
2013-06-13 08:07:00,64.9,54.9,30.06,SW,226,1.0,5.0,70,0.00,,,0.00,meteohub,2013-06-13 06:07:00,
2013-06-13 08:12:00,65.5,55.4,30.06,SW,226,0.0,5.0,70,0.00,,,0.00,meteohub,2013-06-13 06:12:00,
2013-06-13 08:17:00,65.8,55.8,30.05,SW,226,4.0,5.0,70,0.00,,,0.00,meteohub,2013-06-13 06:17:00,
2013-06-13 08:22:00,66.6,55.6,30.05,SW,226,0.0,5.0,68,0.00,,,0.00,meteohub,2013-06-13 06:22:00,
2013-06-13 08:27:00,67.1,55.4,30.06,SW,226,0.0,5.0,66,0.00,,,0.00,meteohub,2013-06-13 06:27:00,
2013-06-13 08:32:00,67.6,55.9,30.06,SW,226,0.0,5.0,66,0.00,,,0.00,meteohub,2013-06-13 06:32:00,
2013-06-13 08:37:00,67.8,56.1,30.05,SW,226,0.0,4.0,66,0.00,,,0.00,meteohub,2013-06-13 06:37:00,
2013-06-13 08:42:00,68.4,55.8,30.06,SW,226,0.0,4.0,64,0.00,,,0.00,meteohub,2013-06-13 06:42:00,
2013-06-13 08:52:00,69.4,56.3,30.05,SW,226,0.0,4.0,63,0.00,,,0.00,meteohub,2013-06-13 06:52:00,
2013-06-13 09:02:00,70.2,55.6,30.06,SW,226,0.0,4.0,60,0.00,,,0.00,meteohub,2013-06-13 07:02:00,
2013-06-13 09:07:00,70.2,55.2,30.06,SW,226,3.0,4.0,59,0.00,,,0.00,meteohub,2013-06-13 07:07:00,
2013-06-13 09:12:00,70.3,54.9,30.06,SW,226,1.0,5.0,58,0.00,,,0.00,meteohub,2013-06-13 07:12:00,
2013-06-13 09:17:00,70.5,56.5,30.05,SW,226,1.0,5.0,61,0.00,,,0.00,meteohub,2013-06-13 07:17:00,
2013-06-13 09:27:00,70.9,54.3,30.05,SW,226,1.0,5.0,56,0.00,,,0.00,meteohub,2013-06-13 07:27:00,
2013-06-13 09:37:00,71.6,55.6,30.05,SW,226,1.0,5.0,57,0.00,,,0.00,meteohub,2013-06-13 07:37:00,
2013-06-13 09:47:00,72.1,55.0,30.05,SW,226,4.0,5.0,55,0.00,,,0.00,meteohub,2013-06-13 07:47:00,
2013-06-13 09:52:00,72.1,55.6,30.05,SW,226,0.0,5.0,56,0.00,,,0.00,meteohub,2013-06-13 07:52:00,
2013-06-13 09:57:00,72.3,54.7,30.05,SW,227,1.0,5.0,54,0.00,,,0.00,meteohub,2013-06-13 07:57:00,
2013-06-13 10:02:00,72.3,55.8,30.05,SW,226,1.0,7.0,56,0.00,,,0.00,meteohub,2013-06-13 08:02:00,
2013-06-13 10:12:00,73.0,55.4,30.05,SW,226,1.0,7.0,54,0.00,,,0.00,meteohub,2013-06-13 08:12:00,
2013-06-13 10:22:00,73.8,56.1,30.04,SW,227,0.0,5.0,54,0.00,,,0.00,meteohub,2013-06-13 08:22:00,
2013-06-13 10:27:00,73.8,56.1,30.04,SW,226,0.0,7.0,54,0.00,,,0.00,meteohub,2013-06-13 08:27:00,
2013-06-13 10:32:00,74.1,55.4,30.04,SW,226,1.0,7.0,52,0.00,,,0.00,meteohub,2013-06-13 08:32:00,
2013-06-13 10:42:00,74.8,56.5,30.04,SW,226,1.0,3.0,53,0.00,,,0.00,meteohub,2013-06-13 08:42:00,
2013-06-13 10:47:00,75.0,57.2,30.04,SW,226,2.0,4.0,54,0.00,,,0.00,meteohub,2013-06-13 08:47:00,
2013-06-13 10:52:00,75.0,55.0,30.04,SW,227,1.0,4.0,50,0.00,,,0.00,meteohub,2013-06-13 08:52:00,
2013-06-13 11:02:00,75.0,56.7,30.04,SW,226,1.0,8.0,53,0.00,,,0.00,meteohub,2013-06-13 09:02:00,
2013-06-13 11:07:00,75.4,55.4,30.04,SW,227,0.0,8.0,50,0.00,,,0.00,meteohub,2013-06-13 09:07:00,
2013-06-13 11:17:00,75.4,54.9,30.04,SW,227,1.0,5.0,49,0.00,,,0.00,meteohub,2013-06-13 09:17:00,
2013-06-13 11:27:00,75.6,55.6,30.03,SW,227,0.0,7.0,50,0.00,,,0.00,meteohub,2013-06-13 09:27:00,
2013-06-13 11:32:00,75.7,55.8,30.03,SW,227,0.0,7.0,50,0.00,,,0.00,meteohub,2013-06-13 09:32:00,
2013-06-13 11:37:00,76.3,57.4,30.03,SW,227,0.0,7.0,52,0.00,,,0.00,meteohub,2013-06-13 09:37:00,
2013-06-13 11:42:00,76.8,56.3,30.03,SW,227,1.0,6.0,49,0.00,,,0.00,meteohub,2013-06-13 09:42:00,
2013-06-13 11:47:00,76.8,56.3,30.03,SW,227,1.0,6.0,49,0.00,,,0.00,meteohub,2013-06-13 09:47:00,
2013-06-13 11:57:00,77.2,55.9,30.03,SW,227,2.0,6.0,48,0.00,,,0.00,meteohub,2013-06-13 09:57:00,
2013-06-13 12:02:00,76.8,55.6,30.03,SW,227,2.0,5.0,48,0.00,,,0.00,meteohub,2013-06-13 10:02:00,
2013-06-13 12:12:00,77.5,56.3,30.02,SW,227,1.0,6.0,48,0.00,,,0.00,meteohub,2013-06-13 10:12:00,
2013-06-13 12:17:00,77.4,55.0,30.02,SW,227,2.0,6.0,46,0.00,,,0.00,meteohub,2013-06-13 10:17:00,
2013-06-13 12:22:00,77.4,55.6,30.02,SW,227,2.0,7.0,47,0.00,,,0.00,meteohub,2013-06-13 10:22:00,
2013-06-13 12:27:00,77.5,54.5,30.02,SW,227,3.0,7.0,45,0.00,,,0.00,meteohub,2013-06-13 10:27:00,
2013-06-13 12:32:00,77.9,57.2,30.01,SW,227,1.0,7.0,49,0.00,,,0.00,meteohub,2013-06-13 10:32:00,
2013-06-13 12:37:00,78.4,55.4,30.01,SW,227,1.0,5.0,45,0.00,,,0.00,meteohub,2013-06-13 10:37:00,
2013-06-13 12:42:00,79.0,57.0,30.01,SW,227,0.0,5.0,47,0.00,,,0.00,meteohub,2013-06-13 10:42:00,
2013-06-13 12:47:00,79.0,55.2,30.01,SW,227,1.0,5.0,44,0.00,,,0.00,meteohub,2013-06-13 10:47:00,
2013-06-13 12:57:00,77.9,54.9,30.01,SW,227,0.0,5.0,45,0.00,,,0.00,meteohub,2013-06-13 10:57:00,
2013-06-13 13:02:00,78.3,55.8,30.01,SW,227,1.0,5.0,46,0.00,,,0.00,meteohub,2013-06-13 11:02:00,
2013-06-13 13:07:00,78.4,55.4,30.00,SW,227,5.0,5.0,45,0.00,,,0.00,meteohub,2013-06-13 11:07:00,
2013-06-13 13:17:00,77.9,55.4,30.00,SW,227,1.0,8.0,46,0.00,,,0.00,meteohub,2013-06-13 11:17:00,
2013-06-13 13:27:00,78.3,55.2,30.00,SW,227,1.0,8.0,45,0.00,,,0.00,meteohub,2013-06-13 11:27:00,
2013-06-13 13:32:00,78.6,54.9,29.99,SW,227,1.0,5.0,44,0.00,,,0.00,meteohub,2013-06-13 11:32:00,
2013-06-13 13:37:00,78.6,54.9,29.99,SW,227,1.0,4.0,44,0.00,,,0.00,meteohub,2013-06-13 11:37:00,
2013-06-13 13:42:00,78.6,55.6,29.99,SW,227,0.0,5.0,45,0.00,,,0.00,meteohub,2013-06-13 11:42:00,
2013-06-13 13:47:00,79.0,55.8,29.99,SW,227,0.0,5.0,45,0.00,,,0.00,meteohub,2013-06-13 11:47:00,
2013-06-13 13:52:00,79.0,54.5,29.99,SW,227,0.0,5.0,43,0.00,,,0.00,meteohub,2013-06-13 11:52:00,
2013-06-13 13:57:00,79.0,55.2,29.98,SW,227,3.0,5.0,44,0.00,,,0.00,meteohub,2013-06-13 11:57:00,
2013-06-13 14:02:00,79.0,55.8,29.98,SW,227,1.0,10.0,45,0.00,,,0.00,meteohub,2013-06-13 12:02:00,
2013-06-13 14:12:00,77.7,55.2,29.98,SW,227,1.0,10.0,46,0.00,,,0.00,meteohub,2013-06-13 12:12:00,
2013-06-13 14:22:00,78.1,55.6,29.97,North,0,0.0,7.0,46,0.00,,,0.00,meteohub,2013-06-13 12:22:00,
2013-06-13 14:32:00,77.9,56.1,29.97,NNW,336,1.0,9.0,47,0.00,,,0.00,meteohub,2013-06-13 12:32:00,
2013-06-13 14:42:00,78.3,56.3,29.97,NNW,333,2.0,7.0,47,0.00,,,0.00,meteohub,2013-06-13 12:42:00,
2013-06-13 14:47:00,78.1,55.6,29.96,SW,227,0.0,7.0,46,0.00,,,0.00,meteohub,2013-06-13 12:47:00,
2013-06-13 14:52:00,78.3,55.2,29.96,North,0,4.0,6.0,45,0.00,,,0.00,meteohub,2013-06-13 12:52:00,
2013-06-13 15:02:00,78.4,55.4,29.96,SW,227,1.0,8.0,45,0.00,,,0.00,meteohub,2013-06-13 13:02:00,
2013-06-13 15:07:00,78.1,55.6,29.96,North,355,0.0,7.0,46,0.00,,,0.00,meteohub,2013-06-13 13:07:00,
2013-06-13 15:12:00,77.7,55.2,29.96,NNW,341,1.0,5.0,46,0.00,,,0.00,meteohub,2013-06-13 13:12:00,
2013-06-13 15:17:00,77.7,55.2,29.96,North,11,0.0,5.0,46,0.00,,,0.00,meteohub,2013-06-13 13:17:00,
2013-06-13 15:22:00,78.1,55.6,29.96,North,0,0.0,6.0,46,0.00,,,0.00,meteohub,2013-06-13 13:22:00,
2013-06-13 15:27:00,78.4,55.9,29.95,NNW,327,2.0,6.0,46,0.00,,,0.00,meteohub,2013-06-13 13:27:00,
2013-06-13 15:32:00,78.6,55.6,29.95,NNE,17,3.0,8.0,45,0.00,,,0.00,meteohub,2013-06-13 13:32:00,
2013-06-13 15:37:00,78.6,57.2,29.95,SW,228,2.0,8.0,48,0.00,,,0.00,meteohub,2013-06-13 13:37:00,
2013-06-13 15:42:00,78.6,54.9,29.95,East,89,0.0,8.0,44,0.00,,,0.00,meteohub,2013-06-13 13:42:00,
2013-06-13 15:47:00,79.0,55.8,29.94,SW,226,2.0,6.0,45,0.00,,,0.00,meteohub,2013-06-13 13:47:00,
2013-06-13 15:52:00,78.6,54.9,29.94,NE,34,1.0,9.0,44,0.00,,,0.00,meteohub,2013-06-13 13:52:00,
2013-06-13 16:02:00,79.0,57.0,29.94,SW,226,1.0,9.0,47,0.00,,,0.00,meteohub,2013-06-13 14:02:00,
2013-06-13 16:07:00,79.0,55.2,29.94,SW,226,3.0,6.0,44,0.00,,,0.00,meteohub,2013-06-13 14:07:00,
2013-06-13 16:12:00,78.6,54.9,29.94,SW,226,2.0,8.0,44,0.00,,,0.00,meteohub,2013-06-13 14:12:00,
2013-06-13 16:17:00,78.8,55.0,29.94,SW,226,0.0,8.0,44,0.00,,,0.00,meteohub,2013-06-13 14:17:00,
2013-06-13 16:27:00,79.5,55.8,29.93,SW,226,4.0,6.0,44,0.00,,,0.00,meteohub,2013-06-13 14:27:00,
2013-06-13 16:37:00,78.4,55.4,29.93,East,88,6.0,7.0,45,0.00,,,0.00,meteohub,2013-06-13 14:37:00,
2013-06-13 16:42:00,78.1,56.3,29.93,NNW,335,1.0,7.0,47,0.00,,,0.00,meteohub,2013-06-13 14:42:00,
2013-06-13 16:52:00,78.3,55.2,29.93,NNW,331,5.0,7.0,45,0.00,,,0.00,meteohub,2013-06-13 14:52:00,
2013-06-13 17:02:00,78.6,56.1,29.93,NE,44,0.0,10.0,46,0.00,,,0.00,meteohub,2013-06-13 15:02:00,
2013-06-13 17:12:00,78.6,56.7,29.93,North,350,1.0,7.0,47,0.00,,,0.00,meteohub,2013-06-13 15:12:00,
2013-06-13 17:22:00,78.3,55.8,29.92,North,0,1.0,4.0,46,0.00,,,0.00,meteohub,2013-06-13 15:22:00,
2013-06-13 17:27:00,78.4,55.9,29.92,North,0,5.0,5.0,46,0.00,,,0.00,meteohub,2013-06-13 15:27:00,
2013-06-13 17:37:00,78.4,55.9,29.91,NNW,344,1.0,9.0,46,0.00,,,0.00,meteohub,2013-06-13 15:37:00,
2013-06-13 17:42:00,78.8,56.8,29.91,North,355,2.0,9.0,47,0.00,,,0.00,meteohub,2013-06-13 15:42:00,
2013-06-13 17:47:00,79.0,55.8,29.91,NNW,336,4.0,9.0,45,0.00,,,0.00,meteohub,2013-06-13 15:47:00,
2013-06-13 17:52:00,78.6,55.6,29.91,NNW,346,1.0,8.0,45,0.00,,,0.00,meteohub,2013-06-13 15:52:00,
2013-06-13 17:57:00,78.4,55.9,29.91,NNW,334,2.0,7.0,46,0.00,,,0.00,meteohub,2013-06-13 15:57:00,
2013-06-13 18:02:00,78.6,55.6,29.91,NNE,19,1.0,7.0,45,0.00,,,0.00,meteohub,2013-06-13 16:02:00,
2013-06-13 18:12:00,79.3,56.1,29.90,NNW,336,2.0,5.0,45,0.00,,,0.00,meteohub,2013-06-13 16:12:00,
2013-06-13 18:17:00,79.2,56.7,29.90,NNW,332,5.0,7.0,46,0.00,,,0.00,meteohub,2013-06-13 16:17:00,
2013-06-13 18:22:00,79.2,56.7,29.90,North,10,1.0,7.0,46,0.00,,,0.00,meteohub,2013-06-13 16:22:00,
2013-06-13 18:32:00,79.2,56.7,29.90,NW,319,2.0,5.0,46,0.00,,,0.00,meteohub,2013-06-13 16:32:00,
2013-06-13 18:37:00,79.0,57.0,29.90,ESE,103,1.0,8.0,47,0.00,,,0.00,meteohub,2013-06-13 16:37:00,
2013-06-13 18:42:00,79.0,56.5,29.90,North,10,2.0,8.0,46,0.00,,,0.00,meteohub,2013-06-13 16:42:00,
2013-06-13 18:52:00,79.2,56.7,29.89,North,0,2.0,4.0,46,0.00,,,0.00,meteohub,2013-06-13 16:52:00,
2013-06-13 19:02:00,78.3,57.6,29.89,NNW,331,2.0,7.0,49,0.00,,,0.00,meteohub,2013-06-13 17:02:00,
2013-06-13 19:07:00,78.1,57.9,29.89,North,355,6.0,7.0,50,0.00,,,0.00,meteohub,2013-06-13 17:07:00,
2013-06-13 19:12:00,77.4,57.2,29.89,North,350,0.0,7.0,50,0.00,,,0.00,meteohub,2013-06-13 17:12:00,
2013-06-13 19:17:00,77.0,56.3,29.89,North,355,2.0,7.0,49,0.00,,,0.00,meteohub,2013-06-13 17:17:00,
2013-06-13 19:27:00,77.2,57.7,29.89,NNW,342,1.0,7.0,51,0.00,,,0.00,meteohub,2013-06-13 17:27:00,
2013-06-13 19:32:00,77.4,57.7,29.89,North,0,3.0,7.0,51,0.00,,,0.00,meteohub,2013-06-13 17:32:00,
2013-06-13 19:37:00,77.2,58.3,29.88,NNE,19,4.0,5.0,52,0.00,,,0.00,meteohub,2013-06-13 17:37:00,
2013-06-13 19:42:00,76.8,57.9,29.88,NNW,339,2.0,6.0,52,0.00,,,0.00,meteohub,2013-06-13 17:42:00,
2013-06-13 19:47:00,76.6,57.7,29.88,NW,315,1.0,6.0,52,0.00,,,0.00,meteohub,2013-06-13 17:47:00,
2013-06-13 19:52:00,76.5,58.1,29.88,North,355,4.0,6.0,53,0.00,,,0.00,meteohub,2013-06-13 17:52:00,
2013-06-13 19:57:00,76.3,57.9,29.88,NNW,333,3.0,6.0,53,0.00,,,0.00,meteohub,2013-06-13 17:57:00,
2013-06-13 20:02:00,75.9,58.1,29.88,North,5,5.0,6.0,54,0.00,,,0.00,meteohub,2013-06-13 18:02:00,
2013-06-13 20:07:00,75.7,57.9,29.88,North,355,1.0,6.0,54,0.00,,,0.00,meteohub,2013-06-13 18:07:00,
2013-06-13 20:17:00,75.4,58.1,29.87,NNW,348,1.0,6.0,55,0.00,,,0.00,meteohub,2013-06-13 18:17:00,
2013-06-13 20:22:00,75.0,57.7,29.87,NNW,342,2.0,5.0,55,0.00,,,0.00,meteohub,2013-06-13 18:22:00,
2013-06-13 20:27:00,74.8,57.6,29.87,North,0,1.0,6.0,55,0.00,,,0.00,meteohub,2013-06-13 18:27:00,
2013-06-13 20:32:00,74.7,57.9,29.87,NNW,348,1.0,6.0,56,0.00,,,0.00,meteohub,2013-06-13 18:32:00,
2013-06-13 20:37:00,74.5,57.7,29.87,NNE,13,1.0,6.0,56,0.00,,,0.00,meteohub,2013-06-13 18:37:00,
2013-06-13 20:47:00,73.9,57.2,29.87,NNW,346,0.0,4.0,56,0.00,,,0.00,meteohub,2013-06-13 18:47:00,
2013-06-13 20:52:00,73.8,57.0,29.87,North,355,1.0,5.0,56,0.00,,,0.00,meteohub,2013-06-13 18:52:00,
2013-06-13 20:57:00,73.6,56.8,29.87,North,355,1.0,5.0,56,0.00,,,0.00,meteohub,2013-06-13 18:57:00,
2013-06-13 21:07:00,73.0,56.8,29.87,NNW,340,2.0,2.0,57,0.00,,,0.00,meteohub,2013-06-13 19:07:00,
2013-06-13 21:17:00,72.3,56.7,29.87,NNW,340,0.0,2.0,58,0.00,,,0.00,meteohub,2013-06-13 19:17:00,
2013-06-13 21:22:00,72.1,56.5,29.87,NNW,348,0.0,2.0,58,0.00,,,0.00,meteohub,2013-06-13 19:22:00,
2013-06-13 21:27:00,71.8,56.1,29.87,NNW,347,2.0,3.0,58,0.00,,,0.00,meteohub,2013-06-13 19:27:00,
2013-06-13 21:37:00,71.2,56.1,29.87,NNW,332,1.0,5.0,59,0.00,,,0.00,meteohub,2013-06-13 19:37:00,
2013-06-13 21:42:00,71.1,55.9,29.87,NNW,348,4.0,5.0,59,0.00,,,0.00,meteohub,2013-06-13 19:42:00,
2013-06-13 21:52:00,71.1,55.6,29.86,NNW,343,2.0,6.0,58,0.00,,,0.00,meteohub,2013-06-13 19:52:00,
2013-06-13 21:57:00,70.9,55.4,29.86,NNW,328,2.0,6.0,58,0.00,,,0.00,meteohub,2013-06-13 19:57:00,
2013-06-13 22:02:00,70.9,55.4,29.86,NNW,347,1.0,6.0,58,0.00,,,0.00,meteohub,2013-06-13 20:02:00,
2013-06-13 22:07:00,70.7,55.6,29.86,NNW,346,1.0,6.0,59,0.00,,,0.00,meteohub,2013-06-13 20:07:00,
2013-06-13 22:17:00,70.3,55.4,29.86,North,355,0.0,5.0,59,0.00,,,0.00,meteohub,2013-06-13 20:17:00,
2013-06-13 22:22:00,70.2,55.6,29.86,North,350,1.0,4.0,60,0.00,,,0.00,meteohub,2013-06-13 20:22:00,
2013-06-13 22:27:00,70.0,55.4,29.86,North,355,0.0,4.0,60,0.00,,,0.00,meteohub,2013-06-13 20:27:00,
2013-06-13 22:37:00,69.8,54.9,29.86,NNW,344,1.0,3.0,59,0.00,,,0.00,meteohub,2013-06-13 20:37:00,
2013-06-13 22:47:00,69.8,54.9,29.86,North,11,1.0,5.0,59,0.00,,,0.00,meteohub,2013-06-13 20:47:00,
2013-06-13 22:52:00,69.8,54.9,29.86,North,0,1.0,5.0,59,0.00,,,0.00,meteohub,2013-06-13 20:52:00,
2013-06-13 22:57:00,69.8,54.9,29.86,North,5,0.0,5.0,59,0.00,,,0.00,meteohub,2013-06-13 20:57:00,
2013-06-13 23:02:00,69.8,54.9,29.86,NNW,345,0.0,4.0,59,0.00,,,0.00,meteohub,2013-06-13 21:02:00,
2013-06-13 23:07:00,69.8,54.9,29.85,NNE,24,0.0,2.0,59,0.00,,,0.00,meteohub,2013-06-13 21:07:00,
2013-06-13 23:12:00,69.8,54.9,29.85,North,5,0.0,2.0,59,0.00,,,0.00,meteohub,2013-06-13 21:12:00,
2013-06-13 23:17:00,69.8,54.3,29.85,NNE,20,1.0,2.0,58,0.00,,,0.00,meteohub,2013-06-13 21:17:00,
2013-06-13 23:22:00,70.0,54.5,29.85,North,355,1.0,5.0,58,0.00,,,0.00,meteohub,2013-06-13 21:22:00,
2013-06-13 23:32:00,69.8,54.0,29.85,North,350,1.0,5.0,57,0.00,,,0.00,meteohub,2013-06-13 21:32:00,
2013-06-13 23:37:00,69.6,53.8,29.85,NNW,330,2.0,5.0,57,0.00,,,0.00,meteohub,2013-06-13 21:37:00,
2013-06-13 23:42:00,69.6,53.8,29.85,NNW,329,1.0,4.0,57,0.00,,,0.00,meteohub,2013-06-13 21:42:00,
2013-06-13 23:47:00,69.4,54.0,29.85,North,350,2.0,4.0,58,0.00,,,0.00,meteohub,2013-06-13 21:47:00,
2013-06-13 23:52:00,69.4,54.0,29.85,NNW,342,2.0,4.0,58,0.00,,,0.00,meteohub,2013-06-13 21:52:00,
2013-06-13 23:57:00,69.3,53.8,29.85,NNW,336,3.0,4.0,58,0.00,,,0.00,meteohub,2013-06-13 21:57:00,